Temperature
29 29 29 29 29 28 27 27 26 26 26 26 25 24 23 22 21 20 19 18 17 16 15 14 13 12 12 11 11 10 10 9 9 9 8 8 8 8 8 8 8 7 7 7
27 28 28 28 28 28 27 27 27 26 26 26 25 24 23 22 21 20 19 17 16 15 15 14 13 12 12 11 11 10 9 9 9 8 8 8 8 8 8 8 7 7 7 7
26 28 28 27 28 28 27 27 27 25 25 25 24 23 22 21 20 19 18 17 16 15 14 13 13 12 12 11 10 10 9 9 8 8 8 8 8 7 7 7 7 7 7 7
26 26 25 27 29 28 27 27 27 26 25 25 24 23 22 20 19 18 17 16 15 14 14 13 13 12 11 11 10 9 9 8 8 8 8 7 7 7 7 7 7 7 7 7
26 25 26 27 28 27 26 25 26 25 25 24 24 23 21 19 18 18 16 15 14 14 13 13 12 12 11 10 10 9 9 8 8 8 7 7 7 7 7 7 7 7 7 7
26 25 24 27 28 27 26 25 25 25 24 24 23 22 22 19 18 17 16 15 14 14 13 12 12 11 10 10 9 9 8 8 7 7 7 7 7 7 7 7 7 7 7 7
25 25 26 28 27 27 25 24 24 24 23 23 22 21 20 19 18 17 16 15 14 13 13 12 11 11 10 9 9 8 8 7 7 7 7 7 7 7 7 7 7 7 7 7
26 26 26 27 27 26 25 25 24 24 23 23 22 21 20 19 18 16 15 15 14 13 12 12 11 10 9 9 8 8 8 7 7 7 7 7 7 7 7 7 7 7 7 7
27 26 26 27 26 26 25 25 24 24 23 22 21 20 20 18 17 16 15 14 13 12 12 11 10 10 9 8 8 7 7 7 7 7 7 7 7 7 7 7 7 7 7 6
26 27 27 27 27 26 26 25 24 24 23 22 21 20 19 18 17 16 15 13 13 12 11 11 10 9 8 8 7 7 7 7 7 7 7 7 7 8 8 8 7 7 7 6
26 27 27 27 26 26 26 25 24 24 23 22 21 20 19 18 16 15 14 13 12 12 11 10 9 9 8 7 7 7 7 7 7 7 7 7 8 8 8 8 8 7 7 6
27 27 27 26 26 26 26 25 24 24 23 22 21 20 18 17 16 15 14 13 12 11 10 10 9 8 7 7 7 6 6 6 7 7 7 7 8 8 8 8 8 7 7 6
27 27 27 26 26 26 26 25 24 24 22 21 20 19 18 17 15 15 14 13 12 11 10 9 8 8 7 7 6 6 6 6 6 7 7 7 8 8 8 8 8 8 7 7
27 27 26 26 26 25 25 25 25 24 23 21 20 19 17 16 15 14 13 12 11 11 10 9 8 7 7 6 6 6 6 6 7 7 7 8 8 8 8 8 8 8 8 7
26 26 26 26 25 25 25 25 24 24 23 21 20 18 17 16 15 14 13 12 11 10 10 9 8 7 7 7 6 6 6 7 7 7 7 8 8 8 9 9 8 8 8 7
25 26 26 26 25 25 24 24 24 23 22 21 20 19 17 16 15 14 13 12 11 10 9 8 7 7 7 7 6 6 7 7 7 7 8 8 8 9 9 9 8 8 8 8
24 24 24 24 24 24 24 24 24 23 22 21 20 19 17 15 14 13 12 12 11 10 9 8 7 7 7 6 6 6 6 7 8 8 8 8 8 9 9 9 9 8 8 8
23 23 23 23 23 23 23 23 23 23 22 21 20 18 16 15 14 13 12 11 10 10 10 8 8 8 7 6 6 6 6 7 7 8 8 8 9 9 9 9 9 9 9 8
21 21 21 21 22 22 22 22 22 22 21 20 18 17 16 15 14 13 12 11 11 10 10 9 8 7 7 6 7 7 6 7 7 8 8 8 9 9 9 9 9 9 9 9
19 19 19 20 20 20 21 21 21 20 20 18 17 16 15 14 13 12 12 11 11 11 10 9 8 7 7 7 7 7 6 7 7 8 8 8 9 9 9 9 9 9 9 9
17 17 18 18 18 18 19 19 19 19 18 17 16 15 15 14 13 12 12 12 11 11 10 9 8 7 7 7 7 6 6 7 7 7 8 8 8 9 9 9 9 9 9 9
15 16 16 16 17 17 17 18 18 18 17 16 16 15 14 14 13 12 12 12 11 11 10 9 8 8 8 7 6 6 6 6 7 7 7 8 8 8 9 9 9 9 9 9
14 14 14 15 15 16 16 16 17 17 17 16 15 15 14 14 13 13 12 12 11 11 10 9 8 8 8 6 6 6 6 6 6 7 7 7 8 8 9 9 9 9 9 9
13 13 14 14 14 15 15 16 16 16 16 16 15 15 14 13 13 13 12 12 11 10 9 8 8 8 7 6 5 5 5 5 6 6 7 7 8 8 8 9 9 9 9 9
13 13 13 13 14 14 15 15 16 16 16 15 15 15 14 13 12 12 12 11 11 10 9 8 8 7 6 5 5 5 5 5 5 6 6 7 7 8 8 8 9 9 9 9
13 13 13 13 13 13 14 14 15 15 15 15 15 15 14 13 12 11 11 10 10 9 8 8 7 7 6 5 5 4 4 4 5 5 6 6 7 7 8 8 9 9 9 9
12 13 13 13 14 14 14 14 14 14 14 14 14 13 13 12 11 11 10 10 9 8 8 8 7 6 6 5 4 4 3 4 4 5 5 6 6 7 8 8 8 9 9 9
Wind_Speed
11 10 8 8 9 8 7 8 9 10 12 10 10 9 9 8 9 9 9 10 10 9 8 8 9 9 10 10 10 10 11 12 11 11 10 11 11 11 10 11 13 11 11 11
14 12 10 11 11 7 6 8 9 10 10 11 11 10 10 10 10 9 9 11 12 12 11 10 9 10 10 10 9 9 10 12 11 11 12 12 11 12 11 11 11 11 12 13
13 13 13 10 5 2 6 8 8 10 9 10 11 10 10 10 8 8 10 12 12 12 11 9 9 9 9 9 10 10 11 12 12 12 13 13 15 14 13 12 12 12 12 13
12 14 14 7 1 2 4 6 8 8 7 9 9 8 7 6 7 8 10 11 12 12 12 11 10 10 9 11 11 11 12 12 13 13 14 14 14 15 13 12 12 12 12 13
10 13 12 3 2 2 3 8 6 4 7 10 10 11 5 7 6 7 9 10 10 12 13 12 12 10 11 12 12 12 13 13 14 14 15 15 16 15 14 12 12 12 12 12
10 14 16 15 5 6 4 3 7 6 8 9 10 9 6 8 8 8 9 10 11 12 13 11 10 11 12 12 12 13 13 14 14 15 15 16 16 15 13 12 12 12 12 11
12 14 10 6 9 1 6 4 4 7 7 8 7 6 8 9 8 8 9 10 11 11 11 10 10 10 11 12 12 12 13 14 15 15 15 16 15 12 12 12 12 12 12 11
10 11 5 6 0 6 5 4 6 7 7 7 6 7 7 8 8 8 9 11 11 10 10 10 10 10 12 12 12 13 13 14 15 16 16 15 14 13 12 11 11 10 9 9
7 8 1 4 7 6 5 6 6 7 7 6 7 7 7 7 7 8 9 10 11 11 11 10 10 10 12 12 12 13 14 15 16 17 15 15 13 13 11 9 8 8 7 7
8 11 10 10 11 8 7 7 7 7 6 7 7 7 7 7 7 8 8 10 10 12 12 11 11 11 10 11 12 12 14 15 15 15 15 14 11 10 9 8 8 8 7 7
14 13 11 12 10 9 8 8 9 8 7 7 7 7 7 6 6 7 8 9 10 10 11 12 12 11 11 11 11 13 14 14 15 14 14 13 11 9 9 7 5 6 7 6
11 9 8 9 11 12 10 9 9 9 9 8 7 6 6 5 6 6 8 8 9 11 12 12 12 12 11 11 11 13 13 13 12 12 12 11 11 10 8 7 6 6 5 5
13 13 12 12 12 12 10 10 10 9 9 8 6 5 5 5 5 6 8 9 10 11 12 12 11 11 11 11 12 13 13 13 12 12 11 11 10 9 8 5 7 8 7 7
13 12 13 12 12 12 13 13 11 10 8 7 6 5 5 5 5 6 8 9 9 11 11 11 10 11 11 12 12 13 14 13 12 11 11 11 11 9 7 6 5 4 7 9
14 13 13 11 10 10 12 13 12 10 8 8 8 7 5 5 5 6 7 7 8 10 11 11 11 11 11 12 13 14 13 11 11 12 11 10 10 9 7 6 5 4 2 5
14 14 12 11 11 11 12 13 12 11 9 8 8 6 5 4 4 5 6 7 8 10 10 10 10 11 12 12 13 12 11 13 13 12 11 10 9 7 6 5 5 3 2 2
10 11 11 12 13 13 13 13 12 11 10 8 7 6 5 5 5 5 6 6 7 8 9 7 8 10 11 11 12 11 11 12 14 12 10 9 9 8 7 6 5 4 2 1
9 11 12 13 13 14 14 14 13 10 8 7 6 6 6 6 5 5 6 7 8 9 7 6 8 10 11 10 10 10 10 10 10 11 10 9 9 8 6 6 6 5 3 3
11 12 14 15 15 14 12 12 12 8 5 5 6 6 6 6 5 5 5 7 9 8 5 7 7 9 9 9 10 9 9 10 11 10 10 10 9 7 6 6 6 5 4 2
13 14 15 16 16 16 13 11 9 5 2 4 5 6 7 7 6 5 5 7 6 3 5 7 8 8 9 10 11 9 9 10 10 10 10 9 9 7 6 6 6 5 4 3
15 15 15 15 16 16 15 13 10 6 3 6 7 7 7 7 7 6 6 7 0 3 3 8 6 5 8 11 12 9 9 9 10 10 10 9 9 8 7 6 6 5 5 4
15 15 16 16 15 15 15 14 12 9 6 6 9 9 8 8 8 7 8 5 2 4 3 6 4 6 9 12 8 8 9 9 9 9 9 9 9 8 7 6 6 6 5 4
15 16 16 16 16 16 16 15 15 12 8 8 10 11 11 9 7 7 6 4 4 4 2 2 3 4 10 9 7 8 8 9 9 9 9 10 9 9 7 6 5 6 5 6
17 17 18 18 18 18 17 17 16 11 10 8 11 12 12 10 9 8 5 8 7 4 2 4 3 3 9 6 6 7 8 8 9 10 10 10 9 9 8 7 5 4 5 6
18 18 19 18 18 16 14 14 14 12 13 11 13 13 13 10 9 6 5 9 10 5 3 6 8 6 5 5 6 7 7 7 8 9 9 9 10 9 9 8 6 5 4 4
15 15 15 15 15 14 15 14 14 14 12 10 10 10 9 7 7 6 5 7 8 6 4 2 3 4 3 5 6 7 7 8 8 8 10 9 10 10 9 10 10 7 5 5
16 14 11 12 12 12 12 11 12 11 9 8 8 6 4 5 6 7 6 5 5 4 2 1 2 3 5 6 7 7 7 8 8 9 9 9 9 9 10 11 9 8 7 6
Wind_Direction
316 315 310 310 314 319 317 316 311 326 331 4 28 4 353 347 348 342 344 342 339 334 329 328 327 324 319 318 319 319 315 310 306 305 303 300 298 298 296 294 294 292 290 286
310 313 296 291 295 283 297 304 301 314 325 12 5 354 350 346 336 333 340 338 333 331 329 326 323 318 316 315 318 317 311 308 307 305 304 302 301 297 296 296 295 291 286 283
305 307 301 304 313 286 318 318 317 313 336 4 348 340 331 324 324 341 340 334 333 332 325 320 315 314 313 316 318 316 312 310 309 309 309 307 306 304 300 299 297 291 285 280
295 305 300 312 96 357 337 325 305 310 4 357 334 332 337 26 18 348 337 336 334 326 321 318 321 321 322 318 318 319 316 314 313 311 309 307 304 300 299 297 295 291 285 281
294 294 297 310 219 169 336 313 316 356 353 335 340 324 70 59 7 346 345 336 326 322 319 319 317 323 322 316 318 318 317 317 316 313 308 305 303 301 299 297 294 290 286 280
277 290 294 303 123 108 338 327 56 11 347 338 332 319 352 15 354 352 340 329 324 321 320 318 322 325 317 316 319 320 322 319 314 309 305 303 299 297 297 295 292 292 288 284
269 278 291 76 112 299 318 34 357 341 339 326 338 320 322 329 340 339 330 327 326 325 323 322 322 323 317 317 320 324 322 316 312 308 304 299 296 297 297 296 295 293 290 288
279 283 300 109 330 322 339 330 311 320 315 317 313 306 312 323 329 330 330 329 331 326 322 323 326 328 321 321 326 323 318 315 312 309 306 304 302 300 297 296 296 294 293 295
299 309 323 257 287 296 289 278 280 290 306 311 303 305 312 320 327 330 328 329 327 325 324 327 332 332 325 328 326 322 319 314 312 310 307 302 299 299 301 300 299 302 306 307
289 285 284 284 293 291 276 268 268 274 283 286 289 297 307 317 323 323 327 326 327 326 324 326 332 333 333 329 328 323 317 315 313 310 308 306 302 300 300 302 308 316 318 320
275 276 277 276 279 284 274 261 256 258 265 270 275 285 298 311 319 325 322 323 326 323 325 327 332 332 333 333 330 322 317 315 313 310 307 306 304 298 296 298 300 295 311 321
299 303 291 290 285 276 266 252 253 256 260 263 266 277 293 308 319 316 316 323 324 325 325 326 328 329 333 334 329 321 317 316 313 309 307 306 305 306 291 274 255 242 249 282
291 289 284 282 285 292 285 266 253 245 240 243 249 259 279 294 301 311 320 324 326 324 323 323 327 329 333 334 327 319 314 312 310 307 306 307 307 306 307 286 242 242 242 252
296 286 278 277 280 285 285 281 270 254 236 224 226 233 253 276 295 313 320 321 321 321 320 326 331 330 334 330 322 316 313 309 308 308 308 307 307 307 307 309 298 265 227 228
302 291 281 278 275 277 281 278 271 258 239 221 212 217 236 265 290 304 311 318 319 317 325 329 326 329 334 325 320 316 314 313 315 313 309 306 307 310 312 316 308 292 228 196
296 295 297 297 295 288 286 284 275 260 246 232 219 211 222 250 276 293 308 316 319 321 322 319 322 330 329 322 320 316 314 311 313 312 312 313 314 318 323 323 320 313 270 231
317 318 323 320 315 309 302 292 279 263 246 233 213 199 206 234 263 283 305 316 318 311 306 317 328 331 322 319 321 318 316 317 317 316 321 323 322 325 329 327 320 316 306 161
348 341 332 325 317 310 305 300 288 265 239 227 207 194 203 225 255 284 300 307 305 300 314 340 343 323 314 322 326 317 314 318 321 322 324 323 324 319 325 328 327 329 313 202
6 359 349 341 332 321 310 305 300 286 242 199 186 193 202 222 240 261 284 298 296 298 336 346 331 304 318 334 334 313 316 321 324 324 324 322 321 328 334 335 337 333 327 307
11 7 1 354 347 341 333 326 318 306 226 176 186 201 210 223 234 250 270 280 286 327 338 330 312 314 329 341 334 316 320 323 326 328 328 332 334 337 342 346 346 339 337 334
4 1 359 357 352 345 339 331 320 299 238 201 199 210 216 222 232 241 255 274 254 98 315 292 281 337 345 334 311 314 327 330 330 330 331 333 332 338 344 346 347 343 345 347
352 347 345 343 341 336 332 324 311 292 254 224 220 217 217 218 227 235 236 241 182 123 292 301 2 20 339 319 312 327 333 335 332 333 332 332 332 335 341 347 351 357 1 1
334 331 328 326 323 317 312 309 302 291 261 231 223 218 219 220 223 231 238 186 154 132 272 326 59 347 320 310 323 335 338 339 336 335 333 331 331 334 340 349 358 7 9 0
319 317 315 312 308 303 298 292 290 287 272 244 232 222 218 224 226 225 198 133 134 147 267 138 163 290 294 304 335 343 341 340 339 338 335 334 332 333 339 344 358 8 5 357
309 308 306 303 299 295 291 287 285 273 263 254 247 234 224 222 225 215 165 149 149 174 243 182 195 241 286 338 350 348 342 345 341 334 335 336 334 334 337 341 347 352 356 0
301 297 296 293 293 293 294 295 297 296 292 282 265 249 230 208 196 171 156 160 163 182 232 231 215 247 326 359 3 357 351 348 345 344 341 337 336 337 338 341 340 350 356 358
295 293 291 292 302 309 314 316 316 316 316 315 299 276 227 184 169 164 163 166 174 183 199 312 0 11 15 19 13 6 1 356 352 348 344 340 339 340 339 337 337 344 351 2
Height
1480 1474 1474 1476 1476 1477 1482 1486 1492 1490 1488 1485 1487 1490 1492 1494 1495 1496 1496 1496 1495 1493 1490 1488 1485 1482 1479 1476 1473 1469 1465 1461 1458 1454 1451 1447 1444 1440 1437 1433 1430 1427 1424 1422
1485 1477 1475 1475 1473 1475 1479 1481 1483 1485 1487 1484 1487 1489 1491 1493 1493 1493 1494 1493 1492 1489 1487 1484 1481 1479 1476 1472 1469 1465 1461 1457 1453 1450 1446 1442 1438 1434 1431 1427 1424 1420 1417 1414
1492 1480 1477 1482 1473 1474 1477 1477 1481 1487 1486 1485 1487 1490 1490 1490 1491 1491 1492 1491 1489 1486 1484 1481 1478 1475 1471 1468 1464 1461 1457 1453 1449 1444 1440 1436 1432 1428 1424 1420 1417 1413 1410 1407
1491 1489 1500 1479 1467 1471 1476 1478 1478 1479 1482 1486 1487 1487 1488 1488 1490 1491 1490 1488 1486 1483 1480 1477 1474 1471 1467 1464 1460 1456 1452 1448 1443 1439 1434 1430 1425 1421 1417 1414 1410 1406 1402 1399
1493 1494 1486 1475 1469 1472 1478 1480 1476 1479 1483 1485 1485 1486 1486 1489 1489 1489 1487 1485 1483 1480 1477 1473 1470 1466 1463 1459 1456 1451 1447 1443 1438 1433 1428 1423 1419 1415 1411 1407 1403 1399 1396 1392
1490 1497 1497 1475 1465 1471 1477 1480 1479 1481 1483 1484 1484 1485 1484 1486 1486 1485 1484 1482 1479 1476 1473 1470 1466 1462 1458 1455 1451 1447 1442 1437 1432 1427 1422 1417 1413 1409 1405 1401 1397 1393 1389 1385
1487 1488 1477 1466 1469 1472 1483 1486 1481 1481 1482 1483 1483 1486 1486 1484 1483 1482 1481 1479 1476 1473 1469 1466 1462 1458 1454 1451 1447 1442 1437 1431 1426 1421 1416 1412 1407 1404 1400 1396 1392 1387 1383 1379
1478 1484 1482 1470 1471 1474 1478 1477 1478 1479 1480 1481 1482 1482 1482 1481 1480 1479 1477 1475 1472 1469 1466 1462 1458 1454 1450 1446 1442 1437 1431 1426 1421 1415 1411 1407 1403 1399 1395 1391 1387 1382 1378 1374
1472 1475 1471 1469 1470 1470 1472 1474 1475 1476 1477 1478 1478 1479 1479 1478 1477 1476 1474 1472 1469 1466 1462 1458 1455 1450 1446 1441 1436 1432 1426 1421 1416 1410 1406 1402 1398 1395 1391 1387 1383 1379 1375 1371
1468 1466 1466 1466 1466 1466 1468 1469 1471 1473 1474 1474 1475 1475 1475 1475 1474 1472 1470 1468 1465 1462 1458 1455 1451 1446 1442 1437 1432 1427 1422 1417 1411 1406 1401 1398 1395 1391 1387 1384 1380 1376 1372 1369
1463 1461 1461 1462 1462 1463 1464 1465 1466 1468 1469 1470 1471 1472 1472 1472 1471 1469 1467 1465 1462 1459 1455 1451 1447 1442 1438 1433 1428 1423 1418 1413 1407 1403 1398 1394 1391 1388 1384 1381 1377 1374 1370 1367
1459 1457 1458 1459 1460 1459 1459 1460 1461 1463 1465 1466 1467 1468 1468 1468 1468 1466 1464 1462 1459 1455 1452 1447 1443 1438 1434 1429 1424 1419 1414 1409 1404 1399 1395 1391 1388 1384 1380 1377 1374 1370 1367 1365
1453 1452 1453 1454 1454 1454 1454 1455 1456 1457 1459 1461 1463 1464 1465 1465 1464 1463 1461 1458 1455 1452 1448 1444 1439 1435 1430 1425 1421 1416 1411 1406 1401 1397 1393 1389 1385 1381 1377 1374 1371 1367 1365 1363
1450 1450 1449 1450 1450 1451 1451 1450 1450 1451 1453 1456 1458 1460 1461 1461 1461 1459 1457 1455 1452 1448 1445 1441 1436 1431 1427 1422 1417 1412 1408 1403 1399 1394 1390 1386 1383 1379 1375 1371 1368 1365 1363 1361
1447 1446 1445 1445 1445 1446 1447 1446 1446 1447 1449 1451 1454 1456 1457 1457 1457 1456 1454 1451 1448 1445 1441 1437 1433 1428 1423 1418 1414 1409 1405 1401 1397 1392 1388 1384 1381 1377 1373 1370 1367 1364 1362 1360
1445 1443 1442 1442 1442 1442 1443 1442 1442 1442 1444 1446 1449 1451 1453 1453 1453 1452 1450 1448 1445 1442 1438 1434 1429 1425 1420 1415 1411 1406 1402 1399 1395 1390 1386 1383 1379 1376 1372 1369 1366 1363 1361 1360
1443 1442 1442 1441 1440 1440 1439 1438 1438 1438 1440 1442 1444 1446 1448 1449 1449 1448 1447 1444 1442 1438 1435 1431 1426 1421 1417 1412 1408 1404 1400 1396 1393 1389 1386 1382 1378 1375 1372 1368 1365 1363 1361 1359
1443 1443 1442 1441 1440 1438 1437 1436 1435 1434 1435 1437 1440 1442 1444 1445 1445 1445 1443 1441 1438 1435 1433 1428 1423 1418 1414 1411 1406 1402 1398 1395 1391 1388 1384 1381 1378 1374 1371 1368 1365 1363 1361 1359
1443 1442 1441 1440 1439 1437 1435 1434 1433 1432 1432 1434 1436 1438 1440 1441 1441 1441 1439 1437 1435 1433 1430 1425 1420 1416 1413 1409 1404 1400 1397 1394 1390 1387 1384 1380 1377 1374 1371 1368 1365 1362 1360 1359
1444 1443 1441 1440 1438 1436 1434 1433 1432 1431 1431 1432 1434 1436 1437 1438 1438 1437 1435 1434 1432 1429 1426 1422 1417 1414 1411 1407 1403 1399 1396 1393 1389 1386 1383 1380 1377 1374 1371 1368 1365 1363 1360 1358
1446 1444 1442 1440 1438 1436 1435 1433 1432 1430 1430 1429 1430 1431 1432 1433 1433 1432 1431 1430 1428 1424 1422 1419 1415 1412 1408 1404 1401 1398 1396 1392 1388 1385 1382 1380 1377 1374 1371 1369 1366 1363 1361 1359
1447 1445 1443 1440 1438 1436 1434 1432 1430 1428 1427 1426 1426 1427 1427 1427 1427 1427 1426 1425 1423 1420 1419 1417 1413 1409 1406 1402 1399 1397 1394 1391 1388 1385 1382 1379 1377 1375 1372 1370 1367 1364 1362 1359
1447 1445 1442 1439 1436 1434 1431 1429 1427 1424 1422 1421 1421 1421 1420 1420 1420 1420 1420 1419 1418 1416 1415 1413 1409 1406 1403 1400 1398 1396 1393 1390 1386 1384 1381 1379 1377 1375 1373 1371 1369 1366 1364 1361
1444 1441 1438 1435 1432 1429 1426 1423 1421 1418 1416 1414 1413 1413 1413 1413 1413 1413 1413 1413 1413 1412 1411 1409 1406 1404 1400 1399 1397 1394 1391 1388 1385 1383 1380 1378 1377 1375 1374 1372 1370 1368 1366 1364
1439 1436 1433 1430 1426 1422 1419 1415 1413 1410 1408 1406 1405 1405 1405 1405 1406 1407 1407 1407 1408 1408 1407 1406 1404 1401 1399 1398 1395 1392 1390 1387 1384 1381 1379 1377 1376 1375 1374 1372 1371 1369 1367 1365
1434 1431 1428 1425 1421 1417 1414 1410 1407 1405 1402 1399 1398 1397 1397 1397 1399 1400 1401 1402 1403 1403 1404 1404 1402 1401 1399 1397 1394 1391 1388 1385 1383 1380 1378 1376 1375 1374 1373 1372 1371 1370 1369 1367
1429 1425 1422 1418 1415 1412 1409 1406 1403 1400 1397 1394 1392 1391 1390 1390 1392 1394 1397 1398 1399 1400 1401 1401 1401 1400 1398 1395 1392 1389 1387 1384 1381 1378 1376 1374 1373 1372 1372 1371 1371 1370 1370 1368